1513285200.21,26143,5.94,71764.8,-11.99,-42.89,-43.35,0,*64
1513285201.43,26144,5.94,71786.0,-11.99,-42.89,-43.49,0,*68
1513285202.67,26145,5.94,71762.3,-11.99,-42.63,-43.29,0,*6B
1513285203.91,26146,5.94,71764.5,-11.99,-42.51,-43.09,0,*6B
1513285205.15,26147,5.94,71750.8,-11.99,-42.63,-43.09,0,*6B
1513285206.39,26148,5.94,71756.3,-11.97,-42.63,-43.15,0,*67
1513285207.61,26149,5.94,71766.8,-11.99,-42.63,-43.15,0,*68
1513285208.88,26150,5.94,71776.3,-11.97,-42.69,-43.15,0,*64
1513285210.17,26151,5.94,71776.5,-11.97,-42.69,-43.09,0,*68
1513285211.44,26152,5.94,71770.0,-11.97,-42.63,-43.09,0,*61
1513285212.71,26153,5.94,71760.8,-11.95,-42.83,-43.29,0,*6E
1513285213.97,26154,5.94,71782.5,-11.97,-42.89,-43.29,0,*61
1513285215.24,26155,5.94,71782.8,-11.97,-42.63,-43.09,0,*66
1513285216.48,26156,5.94,71778.5,-11.97,-42.63,-43.15,0,*68
1513285217.72,26157,5.94,71776.5,-11.97,-42.51,-43.15,0,*68
1513285218.99,26158,5.94,71790.8,-11.95,-42.57,-43.21,0,*64
1513285220.26,26159,5.94,71792.5,-11.97,-42.63,-43.09,0,*6A
1513285221.55,26160,5.94,71792.0,-11.97,-42.69,-43.09,0,*6A
1513285222.79,26161,5.94,71798.3,-11.95,-42.75,-43.29,0,*66
1513285224.04,26162,5.94,71806.5,-11.95,-42.75,-43.21,0,*6D
1513285225.33,26163,5.94,71812.3,-11.97,-42.69,-43.29,0,*6B
1513285226.57,26164,5.94,71820.5,-11.97,-42.89,-43.49,0,*64
1513285227.85,26165,5.94,71794.5,-11.95,-42.95,-43.29,0,*6C
1513285229.09,26166,5.94,71790.5,-11.95,-42.75,-43.09,0,*63
1513285230.36,26167,5.94,71778.0,-11.95,-42.83,-43.29,0,*69
1513285231.61,26168,5.94,71780.3,-11.95,-42.95,-43.49,0,*67
1513285232.84,26169,5.94,71778.8,-11.95,-43.01,-43.61,0,*60
1513285234.09,26170,5.94,71806.8,-11.95,-42.95,-43.41,0,*66
1513285235.33,26171,5.94,71780.8,-11.95,-42.37,-42.83,0,*60
1513285236.6,26172,5.94,71794.5,-11.91,-42.45,-43.09,0,*61
1513285237.85,26173,5.94,71772.5,-11.95,-42.57,-42.75,0,*6D
1513285239.1,26174,5.94,71774.0,-11.91,-42.63,-42.95,0,*67
1513285240.36,26175,5.94,71774.8,-11.95,-42.83,-43.29,0,*6A
1513285241.6,26176,5.94,71786.3,-11.91,-42.83,-43.49,0,*6B
1513285242.85,26177,5.94,71788.5,-11.95,-42.75,-43.09,0,*63
1513285244.12,26178,5.94,71786.8,-11.95,-42.83,-43.21,0,*6F
1513285245.38,26179,5.94,71780.3,-11.91,-42.83,-43.21,0,*6A
1513285246.66,26180,5.94,71750.0,-11.91,-42.95,-43.29,0,*63
1513285247.89,26181,5.94,71740.8,-11.91,-43.01,-43.41,0,*60
1513285249.13,26182,5.94,71730.8,-11.91,-42.75,-43.29,0,*6F
1513285250.4,26183,5.94,71710.3,-11.95,-42.83,-43.09,0,*61
1513285251.67,26184,5.94,71676.0,-11.95,-42.45,-42.95,0,*68
1513285252.92,26185,5.94,71662.3,-11.95,-42.05,-42.63,0,*64
1513285254.18,26186,5.94,71674.5,-11.89,-42.13,-42.57,0,*6A
1513285255.41,26187,5.94,71680.3,-11.95,-42.25,-42.63,0,*64
1513285256.66,26188,5.94,71690.8,-11.89,-42.37,-42.75,0,*62
1513285257.95,26189,5.94,71718.8,-11.89,-42.19,-42.69,0,*62
1513285259.25,26190,5.94,71726.5,-11.89,-42.19,-42.69,0,*6A
1513285260.54,26191,5.94,71738.3,-11.85,-42.31,-42.69,0,*6D
1513285261.77,26192,5.94,71740.3,-11.87,-42.51,-42.89,0,*64
1513285263.04,26193,5.94,71740.0,-11.87,-42.57,-42.95,0,*6E
1513285264.31,26194,5.94,71730.3,-11.87,-42.31,-42.69,0,*6A
1513285265.53,26195,5.94,71740.5,-11.87,-42.37,-42.89,0,*63
1513285266.79,26196,5.94,71768.3,-11.87,-42.37,-42.95,0,*6D
1513285268.03,26197,5.94,71772.0,-11.87,-42.69,-43.01,0,*6B
1513285269.27,26198,5.94,71764.5,-11.83,-42.05,-42.51,0,*6E
1513285270.55,26199,5.94,71750.8,-11.85,-41.87,-42.31,0,*66
1513285271.82,26200,5.94,71746.0,-11.85,-41.87,-42.31,0,*65
1513285273.1,26201,5.94,71758.3,-11.83,-42.31,-42.69,0,*61
1513285274.36,26202,5.94,71778.0,-11.85,-42.63,-43.09,0,*64
1513285275.61,26203,5.94,71780.0,-11.83,-42.63,-43.09,0,*63
1513285276.85,26204,5.94,71788.0,-11.83,-42.89,-43.29,0,*62
1513285278.07,26205,5.94,71796.8,-11.83,-42.63,-43.15,0,*68
1513285279.32,26206,5.94,71800.3,-11.83,-42.95,-43.35,0,*60
1513285280.57,26207,5.94,71804.3,-11.83,-42.95,-43.35,0,*61
1513285281.85,26208,5.94,71790.3,-11.85,-42.95,-43.49,0,*63
1513285283.14,26209,5.94,71798.5,-11.85,-43.09,-43.55,0,*6B
1513285284.42,26210,5.94,71810.5,-11.85,-42.95,-43.15,0,*63
1513285285.67,26211,5.94,71790.5,-11.83,-42.95,-43.35,0,*66
1513285286.94,26212,5.94,71802.8,-11.83,-43.09,-43.55,0,*67
1513285288.19,26213,5.94,71808.0,-11.83,-42.95,-43.49,0,*6F
1513285289.47,26214,5.94,71800.8,-11.83,-43.09,-43.55,0,*61
1513285290.77,26215,5.94,71800.5,-11.85,-43.09,-43.55,0,*66
1513285292.01,26216,5.94,71802.3,-11.83,-43.15,-43.55,0,*6E
1513285293.26,26217,5.94,71798.5,-11.83,-43.09,-43.49,0,*6F
1513285294.51,26218,5.94,71796.0,-11.83,-43.09,-43.49,0,*60
1513285295.77,26219,5.94,71786.3,-11.85,-43.29,-43.75,0,*6A
1513285297.04,26220,5.94,71780.5,-11.85,-43.15,-43.67,0,*6C
1513285298.28,26221,5.94,71788.0,-11.85,-43.15,-43.49,0,*61
1513285299.58,26222,5.94,71780.3,-11.85,-43.09,-43.55,0,*62
1513285300.86,26223,5.94,71780.3,-11.83,-43.09,-43.55,0,*65
1513285302.15,26224,5.94,71786.5,-11.85,-43.29,-43.67,0,*67
1513285303.45,26225,5.94,71788.0,-11.85,-43.09,-43.55,0,*65
1513285304.72,26226,5.94,71798.0,-11.83,-43.29,-43.55,0,*62
1513285306.02,26227,5.94,71792.8,-11.85,-43.29,-43.67,0,*64
1513285307.28,26228,5.94,71798.5,-11.85,-43.55,-43.87,0,*6E
1513285308.54,26229,5.94,71796.3,-11.85,-43.55,-43.87,0,*6F
1513285309.81,26230,5.94,71798.3,-11.85,-43.67,-43.87,0,*66
1513285311.04,26231,5.94,71800.3,-11.85,-43.35,-43.87,0,*60
1513285312.28,26232,5.94,71788.8,-11.85,-43.49,-43.87,0,*68
1513285313.51,26233,5.94,71790.0,-11.87,-43.41,-43.95,0,*60
1513285314.74,26234,5.94,71782.5,-11.87,-43.61,-43.95,0,*65
1513285315.99,26235,5.94,71786.8,-11.87,-43.61,-44.01,0,*6E
1513285317.24,26236,5.94,71788.5,-11.87,-43.61,-44.13,0,*6E
1513285318.5,26237,5.94,71790.0,-11.87,-43.81,-44.13,0,*61
1513285319.77,26238,5.94,71792.5,-11.87,-43.81,-44.13,0,*6E
1513285321.04,26239,5.94,71794.8,-11.89,-43.95,-44.13,0,*64
1513285322.29,26240,5.94,71788.8,-11.89,-43.61,-43.95,0,*68
1513285323.55,26241,5.94,71786.8,-11.89,-43.61,-44.01,0,*63
1513285324.82,26242,5.94,71792.3,-11.89,-43.75,-44.01,0,*65
1513285326.07,26243,5.94,71800.8,-11.87,-43.61,-44.01,0,*6F
1513285327.31,26244,5.94,71806.8,-11.91,-43.81,-44.07,0,*67
1513285328.53,26245,5.94,71800.8,-11.91,-43.49,-43.87,0,*6D
1513285329.77,26246,5.94,71782.0,-11.91,-43.41,-43.81,0,*60
1513285330.99,26247,5.94,71788.0,-11.91,-43.61,-43.87,0,*65
1513285332.23,26248,5.94,71790.8,-11.91,-43.49,-43.81,0,*66
1513285333.49,26249,5.94,71790.8,-11.91,-43.29,-43.81,0,*61
1513285334.76,26250,5.94,71792.3,-11.91,-43.29,-43.67,0,*61
1513285335.98,26251,5.94,71800.0,-11.91,-43.61,-43.87,0,*62
1513285337.2,26252,5.94,71806.8,-11.91,-43.49,-43.87,0,*6B
1513285338.41,26253,5.94,71796.3,-11.95,-43.49,-43.87,0,*6E
1513285339.63,26254,5.94,71796.5,-11.91,-43.61,-43.87,0,*67
1513285340.9,26255,5.94,71798.5,-11.91,-43.67,-44.01,0,*69
1513285342.14,26256,5.94,71792.5,-11.95,-43.49,-44.01,0,*62
1513285343.38,26257,5.94,71794.5,-11.95,-43.49,-43.81,0,*6C
1513285344.62,26258,5.94,71802.8,-11.91,-43.49,-43.81,0,*67
1513285345.86,26259,5.94,71798.5,-11.95,-43.49,-43.81,0,*62
1513285347.1,26260,5.94,71798.5,-11.95,-43.49,-43.81,0,*68
1513285348.32,26261,5.94,71794.3,-11.91,-43.49,-43.87,0,*6B
1513285349.59,26262,5.94,71798.0,-11.95,-43.29,-43.67,0,*64
1513285350.86,26263,5.94,71822.3,-11.95,-43.29,-43.81,0,*6D
1513285352.1,26264,5.94,71814.8,-11.95,-43.29,-43.49,0,*6E
1513285353.34,26265,5.94,71796.0,-11.91,-43.21,-43.49,0,*63
1513285354.61,26266,5.94,71798.5,-11.95,-43.21,-43.67,0,*68
1513285355.85,26267,5.94,71802.8,-11.89,-43.35,-43.61,0,*67
1513285357.1,26268,5.94,71790.3,-11.95,-43.29,-43.41,0,*6A
1513285358.35,26269,5.94,71780.8,-11.95,-43.09,-43.41,0,*69
1513285359.6,26270,5.94,71790.8,-11.91,-43.09,-43.41,0,*65
1513285360.82,26271,5.94,71786.5,-11.91,-43.41,-43.49,0,*60
1513285362.07,26272,5.94,71786.8,-11.95,-43.41,-43.67,0,*6B
1513285363.31,26273,5.94,71784.5,-11.95,-43.49,-43.81,0,*6A
1513285364.55,26274,5.94,71782.3,-11.95,-43.49,-43.81,0,*6D
1513285365.79,26275,5.94,71800.0,-11.95,-43.49,-43.81,0,*6C
1513285367.03,26276,5.94,71804.3,-11.91,-43.49,-43.81,0,*6B
1513285368.31,26277,5.94,71802.8,-11.91,-43.29,-43.67,0,*64
1513285369.55,26278,5.94,71800.5,-11.95,-43.29,-43.41,0,*6B
1513285370.8,26279,5.94,71784.5,-11.95,-43.41,-43.67,0,*60
1513285372.04,26280,5.94,71768.5,-11.95,-43.49,-43.81,0,*66
1513285373.29,26281,5.94,71780.5,-11.91,-43.41,-43.67,0,*63
1513285374.54,26282,5.94,71798.0,-11.95,-43.49,-43.67,0,*6C
1513285375.77,26283,5.94,71800.8,-11.95,-43.41,-43.61,0,*63
1513285377.01,26284,5.94,71794.8,-11.97,-43.49,-43.75,0,*6B
1513285378.25,26285,5.94,71792.5,-11.97,-43.49,-43.75,0,*6A
1513285379.5,26286,5.94,71788.3,-11.97,-43.49,-43.75,0,*69
1513285380.72,26287,5.94,71794.5,-11.91,-43.41,-43.61,0,*63
1513285381.94,26288,5.94,71810.0,-11.95,-43.41,-43.49,0,*62
1513285383.19,26289,5.94,71802.0,-11.97,-43.49,-43.75,0,*66
1513285384.43,26290,5.88,71760.8,-11.91,-42.95,-43.01,0,*6B
1513285385.68,26291,5.94,71758.8,-11.91,-42.83,-43.01,0,*6D
1513285386.94,26292,5.94,71754.8,-11.95,-43.21,-43.29,0,*69
1513285388.23,26293,5.94,71768.0,-11.97,-43.29,-43.55,0,*69
1513285389.5,26294,5.94,71774.8,-11.97,-43.29,-43.49,0,*63
1513285390.77,26295,5.94,71778.3,-11.95,-43.09,-43.29,0,*64
1513285392.04,26296,5.94,71784.5,-11.95,-43.21,-43.29,0,*6D
1513285393.29,26297,5.94,71794.3,-11.91,-43.01,-43.09,0,*68
1513285394.54,26298,5.94,71816.5,-11.91,-43.01,-43.09,0,*67
1513285395.81,26299,5.94,71812.0,-11.91,-43.09,-43.29,0,*6C
1513285397.05,26300,5.94,71814.8,-11.95,-42.83,-43.01,0,*60
1513285398.33,26301,5.94,71804.0,-11.91,-42.95,-42.95,0,*6E
1513285399.56,26302,5.94,71764.8,-11.91,-42.37,-42.63,0,*6C
1513285400.8,26303,5.94,71752.0,-11.91,-42.57,-42.63,0,*6B
1513285402.05,26304,5.94,71786.8,-11.91,-43.01,-43.09,0,*63
1513285403.32,26305,5.94,71774.8,-11.91,-43.09,-43.21,0,*60
1513285404.57,26306,5.94,71796.3,-11.91,-43.21,-43.41,0,*6F
1513285405.82,26307,5.94,71786.5,-11.91,-42.95,-43.01,0,*64
1513285407.09,26308,5.94,71766.3,-11.91,-42.95,-43.09,0,*63
1513285408.36,26309,5.94,71772.0,-11.89,-42.69,-42.89,0,*61
1513285409.62,26310,5.94,71772.3,-11.89,-43.15,-43.21,0,*60
1513285410.84,26311,5.94,71772.0,-11.87,-43.35,-43.35,0,*68
1513285412.09,26312,5.94,71784.5,-11.89,-43.01,-43.01,0,*65
1513285413.35,26313,5.94,71772.0,-11.87,-43.01,-42.95,0,*66
1513285414.57,26314,5.94,71786.0,-11.87,-43.15,-43.35,0,*6F
1513285415.83,26315,5.94,71776.0,-11.89,-43.15,-43.21,0,*65
1513285417.08,26316,5.94,71772.8,-11.89,-43.35,-43.61,0,*60
1513285418.36,26317,5.94,71770.0,-11.89,-43.21,-43.21,0,*60
1513285419.61,26318,5.94,71782.5,-11.87,-43.35,-43.55,0,*67
1513285420.88,26319,5.94,71788.8,-11.89,-43.21,-43.41,0,*68
1513285422.14,26320,5.94,71786.5,-11.89,-43.21,-43.41,0,*62
1513285423.39,26321,5.94,71774.3,-11.89,-43.01,-43.15,0,*60
1513285424.64,26322,5.94,71788.8,-11.89,-43.15,-43.35,0,*64
1513285425.86,26323,5.94,71776.3,-11.87,-43.15,-43.35,0,*6B
1513285427.11,26324,5.94,71796.3,-11.87,-43.21,-43.41,0,*68
1513285428.35,26325,5.94,71778.3,-11.87,-43.21,-43.35,0,*6A
1513285429.57,26326,5.88,71774.0,-11.87,-43.35,-43.61,0,*6D
1513285430.82,26327,5.94,71776.8,-11.87,-43.35,-43.55,0,*6B
1513285432.07,26328,5.94,71776.3,-11.87,-43.55,-43.75,0,*60
1513285433.32,26329,5.94,71778.5,-11.87,-43.55,-43.61,0,*64
1513285434.57,26330,5.94,71772.5,-11.87,-43.41,-43.55,0,*6E
1513285435.79,26331,5.94,71786.3,-11.87,-43.35,-43.41,0,*69
1513285437.06,26332,5.94,71798.8,-11.87,-43.21,-43.21,0,*69
1513285438.28,26333,5.94,71774.8,-11.87,-43.15,-43.15,0,*68
1513285439.53,26334,5.88,71764.8,-11.87,-43.21,-43.41,0,*69
1513285440.77,26335,5.94,71772.8,-11.87,-43.21,-43.35,0,*6B
1513285442.02,26336,5.94,71764.8,-11.87,-42.95,-43.15,0,*64
1513285443.27,26337,5.88,71774.0,-11.87,-43.21,-43.41,0,*6A
1513285444.5,26338,5.88,71776.0,-11.87,-43.35,-43.41,0,*60
1513285445.72,26339,5.94,71790.0,-11.87,-43.35,-43.41,0,*61
1513285446.99,26340,5.94,71786.5,-11.85,-43.35,-43.67,0,*69
1513285448.24,26341,5.94,71792.5,-11.87,-43.61,-43.81,0,*63
1513285449.48,26342,5.88,71784.3,-11.87,-43.61,-43.81,0,*60
1513285450.75,26343,5.94,71790.3,-11.85,-43.35,-43.55,0,*6B
1513285452.0,26344,5.94,71778.5,-11.87,-43.21,-43.35,0,*6D
1513285453.24,26345,5.94,71782.5,-11.85,-43.15,-43.35,0,*69
1513285454.49,26346,5.94,71784.3,-11.87,-43.55,-43.61,0,*6D
1513285455.74,26347,5.94,71786.8,-11.87,-43.41,-43.55,0,*6E
1513285456.97,26348,5.94,71788.0,-11.87,-43.35,-43.41,0,*67
1513285458.21,26349,5.88,71778.0,-11.87,-43.55,-43.61,0,*62
1513285459.46,26350,5.94,71782.0,-11.87,-43.61,-43.81,0,*63
1513285460.7,26351,5.94,71792.8,-11.87,-43.75,-43.81,0,*67
1513285461.93,26352,5.94,71794.8,-11.87,-43.75,-43.75,0,*6F
1513285463.15,26353,5.94,71794.8,-11.87,-43.41,-43.75,0,*69
1513285464.42,26354,5.88,71780.5,-11.87,-43.55,-43.81,0,*60
1513285465.64,26355,5.94,71776.8,-11.87,-43.41,-43.75,0,*6F
1513285466.89,26356,5.94,71792.3,-11.87,-43.55,-43.75,0,*69
1513285468.13,26357,5.94,71784.5,-11.87,-43.55,-43.75,0,*68
1513285469.38,26358,5.94,71776.0,-11.87,-43.55,-43.75,0,*67
1513285470.63,26359,5.94,71782.8,-11.87,-43.41,-43.55,0,*61
1513285471.86,26360,5.94,71790.8,-11.87,-43.61,-43.75,0,*6B
1513285473.11,26361,5.94,71780.8,-11.87,-43.41,-43.55,0,*6A
1513285474.35,26362,5.94,71786.8,-11.87,-43.75,-43.81,0,*67
1513285475.62,26363,5.94,71782.0,-11.89,-43.61,-43.81,0,*6D
1513285476.87,26364,5.94,71780.0,-11.87,-43.75,-43.81,0,*61
1513285478.11,26365,5.88,71784.0,-11.87,-43.61,-43.81,0,*65
1513285479.38,26366,5.94,71792.0,-11.89,-43.81,-43.95,0,*63
1513285480.63,26367,5.94,71794.3,-11.87,-43.55,-43.61,0,*6E
1513285481.89,26368,5.94,71782.8,-11.89,-43.61,-43.81,0,*66
1513285483.12,26369,5.94,71774.5,-11.87,-43.41,-43.75,0,*60
1513285484.36,26370,5.94,71782.5,-11.89,-43.35,-43.61,0,*60
1513285485.6,26371,5.88,71786.0,-11.87,-43.41,-43.81,0,*62
1513285486.82,26372,5.94,71782.3,-11.87,-43.35,-43.61,0,*6C
1513285488.09,26373,5.94,71796.0,-11.89,-43.75,-43.81,0,*69
1513285489.37,26374,5.94,71792.3,-11.89,-43.81,-43.81,0,*65
1513285490.63,26375,5.94,71778.8,-11.87,-43.41,-43.55,0,*6F
1513285491.87,26376,5.94,71772.8,-11.89,-43.35,-43.61,0,*66
1513285493.11,26377,5.94,71782.5,-11.89,-43.41,-43.61,0,*64
1513285494.36,26378,5.94,71780.0,-11.89,-43.41,-43.61,0,*6B
1513285495.63,26379,5.94,71788.8,-11.89,-43.41,-43.55,0,*6D
1513285496.88,26380,5.94,71778.3,-11.87,-43.35,-43.55,0,*66
1513285498.14,26381,5.88,71778.0,-11.89,-43.21,-43.41,0,*69
1513285499.41,26382,5.94,71778.5,-11.89,-43.35,-43.55,0,*6A
1513285500.68,26383,5.94,71768.0,-11.89,-43.21,-43.15,0,*6A
1513285501.92,26384,5.94,71770.0,-11.89,-43.01,-43.15,0,*6F
1513285503.19,26385,5.88,71764.0,-11.89,-43.15,-43.21,0,*6C
1513285504.43,26386,5.88,71786.5,-11.89,-43.35,-43.35,0,*68
1513285505.66,26387,5.94,71792.8,-11.87,-43.41,-43.61,0,*65
1513285506.9,26388,5.94,71804.5,-11.87,-43.61,-43.81,0,*66
1513285508.13,26389,5.88,71792.8,-11.87,-43.15,-43.35,0,*6B
1513285509.4,26390,5.94,71758.5,-11.89,-42.95,-43.15,0,*66
1513285510.67,26391,5.88,71722.5,-11.89,-42.95,-43.15,0,*67
1513285511.89,26392,5.88,71744.5,-11.87,-43.15,-43.35,0,*61
1513285513.16,26393,5.88,71732.8,-11.85,-43.15,-43.55,0,*64
1513285514.41,26394,5.94,71742.8,-11.87,-43.41,-43.55,0,*60
1513285515.66,26395,5.94,71766.5,-11.87,-43.61,-43.81,0,*6A
1513285516.9,26396,5.94,71760.5,-11.87,-43.75,-43.81,0,*6C
1513285518.13,26397,5.94,71772.5,-11.87,-43.61,-43.75,0,*63
1513285519.36,26398,5.88,71772.8,-11.87,-43.61,-43.75,0,*6C
1513285520.6,26399,5.88,71772.8,-11.87,-43.75,-43.81,0,*63
1513285521.87,26400,5.94,71782.5,-11.89,-43.81,-43.95,0,*64
1513285523.13,26401,5.94,71772.8,-11.89,-43.61,-43.81,0,*6E
1513285524.41,26402,5.94,71774.5,-11.89,-43.41,-43.55,0,*66
1513285525.65,26403,5.88,71772.0,-11.87,-43.55,-43.61,0,*6B
1513285526.9,26404,5.94,71786.0,-11.89,-43.75,-43.75,0,*65
1513285528.16,26405,5.88,71784.0,-11.89,-43.61,-43.81,0,*6A
1513285529.41,26406,5.94,71782.0,-11.89,-43.41,-43.75,0,*60
1513285530.65,26407,5.94,71778.3,-11.89,-43.41,-43.61,0,*64
1513285531.9,26408,5.94,71774.0,-11.87,-43.61,-43.81,0,*69
1513285533.14,26409,5.88,71790.5,-11.87,-43.75,-43.81,0,*6D
1513285534.41,26410,5.94,71764.0,-11.89,-43.55,-43.75,0,*62
1513285535.66,26411,5.88,71758.3,-11.87,-43.21,-43.35,0,*6A
1513285536.9,26412,5.88,71764.8,-11.89,-43.35,-43.35,0,*62
1513285538.17,26413,5.88,71778.5,-11.89,-43.35,-43.55,0,*65
1513285539.44,26414,5.88,71780.5,-11.89,-43.55,-43.61,0,*63
1513285540.68,26415,5.94,71786.8,-11.89,-43.35,-43.41,0,*66
1513285541.95,26416,5.94,71784.0,-11.89,-43.21,-43.35,0,*63
1513285543.2,26417,5.88,71778.0,-11.87,-43.55,-43.61,0,*6E
1513285544.44,26418,5.88,71784.3,-11.89,-43.41,-43.75,0,*6F
1513285545.71,26419,5.94,71788.3,-11.89,-43.35,-43.55,0,*6F
1513285546.97,26420,5.88,71776.3,-11.89,-43.21,-43.41,0,*65
1513285548.22,26421,5.94,71780.8,-11.89,-43.35,-43.35,0,*62
1513285549.46,26422,5.94,71780.3,-11.89,-43.35,-43.41,0,*62
1513285550.74,26423,5.88,71780.3,-11.87,-43.55,-43.55,0,*6E
1513285551.98,26424,5.88,71778.3,-11.87,-43.35,-43.55,0,*6F
1513285553.25,26425,5.88,71778.0,-11.89,-43.55,-43.75,0,*64
1513285554.51,26426,5.88,71778.0,-11.89,-43.75,-43.81,0,*6E
1513285555.76,26427,5.94,71770.3,-11.89,-43.75,-43.75,0,*64
1513285557.02,26428,5.88,71772.3,-11.89,-43.75,-43.81,0,*60
1513285558.26,26429,5.88,71784.5,-11.91,-43.81,-43.87,0,*65
1513285559.51,26430,5.94,71788.3,-11.89,-43.75,-43.95,0,*6C
1513285560.75,26431,5.88,71776.8,-11.89,-43.75,-43.95,0,*6D
1513285562.02,26432,5.94,71780.5,-11.91,-43.81,-44.01,0,*66
1513285563.29,26433,5.94,71784.0,-11.91,-43.67,-44.01,0,*6F
1513285564.52,26434,5.94,71778.5,-11.95,-43.87,-44.01,0,*62
1513285565.73,26435,5.94,71776.8,-11.95,-43.87,-43.87,0,*6A
1513285566.97,26436,5.94,71778.0,-11.95,-43.87,-44.01,0,*60
1513285568.19,26437,5.88,71778.5,-11.95,-43.87,-44.07,0,*67
1513285569.45,26438,5.88,71780.5,-11.95,-43.81,-44.01,0,*68
1513285570.69,26439,5.88,71778.5,-11.95,-43.67,-43.87,0,*68
1513285571.94,26440,5.94,71786.5,-11.95,-43.49,-43.67,0,*64
1513285573.19,26441,5.94,71782.0,-11.95,-43.49,-43.67,0,*65
1513285574.44,26442,5.88,71782.5,-11.95,-43.49,-43.67,0,*66
1513285575.66,26443,5.88,71776.5,-11.95,-43.61,-43.61,0,*6B
1513285576.9,26444,5.88,71786.8,-11.95,-43.67,-43.87,0,*62
1513285578.15,26445,5.88,71784.5,-11.95,-43.61,-43.81,0,*63
1513285579.37,26446,5.88,71782.5,-11.95,-43.49,-43.61,0,*64
1513285580.64,26447,5.88,71782.8,-11.97,-43.49,-43.67,0,*61
1513285581.92,26448,5.88,71774.5,-11.97,-43.49,-43.67,0,*6E
1513285583.19,26449,5.88,71782.3,-11.97,-43.49,-43.67,0,*6F
1513285584.41,26450,5.94,71782.8,-11.99,-43.35,-43.35,0,*65
1513285585.68,26451,5.94,71784.8,-11.97,-43.29,-43.35,0,*67
1513285586.89,26452,5.94,71786.3,-11.99,-43.35,-43.49,0,*6C
1513285588.16,26453,5.88,71782.3,-11.95,-43.09,-43.21,0,*60
1513285589.41,26454,5.94,71776.0,-11.95,-43.29,-43.49,0,*6B
1513285590.63,26455,5.88,71786.0,-11.95,-43.41,-43.61,0,*6E
1513285591.88,26456,5.88,71780.8,-11.95,-43.29,-43.41,0,*61
1513285593.13,26457,5.88,71772.8,-11.95,-42.95,-43.01,0,*62
1513285594.39,26458,5.88,71782.3,-11.95,-43.21,-43.29,0,*69
1513285595.64,26459,5.94,71792.0,-11.95,-43.21,-43.41,0,*66
1513285596.88,26460,5.88,71778.0,-11.95,-43.21,-43.49,0,*64
1513285598.13,26461,5.94,71778.0,-11.95,-43.01,-43.09,0,*63
1513285599.37,26462,5.94,71778.8,-11.95,-42.75,-42.83,0,*61
1513285600.62,26463,5.88,71782.8,-11.95,-43.21,-43.41,0,*6F
1513285601.86,26464,5.94,71776.8,-11.95,-42.83,-43.01,0,*65
1513285603.11,26465,5.88,71776.0,-11.91,-43.01,-43.21,0,*69
1513285604.36,26466,5.94,71776.3,-11.95,-43.01,-43.09,0,*64
1513285605.63,26467,5.88,71768.8,-11.91,-43.09,-43.09,0,*69
1513285606.86,26468,5.88,71776.5,-11.91,-43.01,-43.01,0,*66
1513285608.12,26469,5.94,71782.0,-11.95,-42.83,-43.21,0,*6A
1513285609.39,26470,5.88,71772.0,-11.91,-42.45,-42.57,0,*6C
1513285610.65,26471,5.88,71780.0,-11.91,-42.83,-42.83,0,*6E
1513285611.94,26472,5.94,71776.5,-11.89,-42.57,-42.57,0,*64
1513285613.19,26473,5.94,71782.5,-11.87,-42.69,-42.75,0,*66
1513285614.46,26474,5.94,71786.5,-11.89,-42.95,-43.01,0,*6E
1513285615.71,26475,5.88,71786.5,-11.89,-43.01,-43.15,0,*66
1513285616.98,26476,5.88,71784.3,-11.89,-42.95,-43.01,0,*6C
1513285618.23,26477,5.88,71784.3,-11.89,-43.01,-43.01,0,*61
1513285619.49,26478,5.94,71790.5,-11.89,-42.69,-42.89,0,*60
1513285620.72,26479,5.88,71790.0,-11.87,-42.75,-42.75,0,*61
1513285621.97,26480,5.88,71780.3,-11.87,-42.51,-42.57,0,*61
1513285623.22,26481,5.88,71776.0,-11.87,-42.89,-42.95,0,*6B
1513285624.44,26482,5.88,71766.5,-11.87,-42.89,-42.89,0,*65
1513285625.69,26483,5.88,71774.8,-11.87,-42.31,-42.51,0,*62
1513285626.96,26484,5.88,71764.0,-11.85,-42.31,-42.51,0,*67
1513285628.23,26485,5.88,71762.3,-11.85,-42.45,-42.51,0,*65
1513285629.47,26486,5.88,71750.8,-11.83,-42.13,-42.45,0,*66
1513285630.72,26487,5.88,71752.0,-11.85,-42.51,-42.63,0,*63
1513285631.96,26488,5.88,71754.3,-11.83,-42.63,-42.83,0,*65
1513285633.2,26489,5.88,71750.8,-11.83,-42.89,-43.09,0,*63
1513285634.47,26490,5.88,71762.3,-11.85,-42.83,-42.89,0,*6E
1513285635.71,26491,5.88,71750.3,-11.83,-42.63,-42.83,0,*6D
1513285636.98,26492,5.88,71750.8,-11.83,-42.83,-42.95,0,*67
1513285638.22,26493,5.88,71734.5,-11.83,-42.63,-42.69,0,*6B
1513285639.46,26494,5.88,71734.8,-11.83,-42.63,-42.69,0,*6C
1513285640.73,26495,5.88,71746.3,-11.81,-42.83,-42.89,0,*6F
1513285642.0,26496,5.88,71776.3,-11.81,-42.89,-43.09,0,*6F
1513285643.22,26497,5.94,71754.8,-11.79,-42.89,-43.01,0,*61
1513285644.44,26498,5.94,71742.3,-11.79,-42.75,-42.89,0,*6C
1513285645.69,26499,5.88,71758.0,-11.79,-43.01,-43.09,0,*66
1513285646.93,26500,5.94,71756.0,-11.79,-42.89,-43.21,0,*6C
1513285648.21,26501,5.88,71756.5,-11.81,-43.01,-43.21,0,*6B
1513285649.47,26502,5.94,71758.3,-11.79,-43.21,-43.21,0,*6D
1513285650.75,26503,5.88,71770.5,-11.81,-43.09,-43.41,0,*67
1513285652.02,26504,5.88,71776.5,-11.81,-43.21,-43.41,0,*6A
1513285653.31,26505,5.88,71744.0,-11.81,-43.09,-43.21,0,*67
1513285654.56,26506,5.88,71758.3,-11.79,-43.01,-43.29,0,*63
1513285655.81,26507,5.88,71754.5,-11.79,-42.89,-43.09,0,*61
1513285657.05,26508,5.88,71772.0,-11.79,-42.45,-42.63,0,*63
1513285658.27,26509,5.88,71756.3,-11.79,-42.63,-42.75,0,*61
1513285659.5,26510,5.88,71768.5,-11.79,-43.01,-43.41,0,*6A
1513285660.77,26511,5.88,71772.5,-11.81,-43.21,-43.49,0,*66
1513285662.02,26512,5.88,71766.0,-11.79,-43.09,-43.61,0,*62
1513285663.26,26513,5.88,71766.8,-11.79,-43.21,-43.41,0,*6B
1513285664.51,26514,5.88,71790.5,-11.79,-43.09,-43.49,0,*6E
1513285665.79,26515,5.88,71798.8,-11.81,-43.01,-43.09,0,*64
1513285667.03,26516,5.88,71768.3,-11.79,-42.89,-43.09,0,*61
1513285668.25,26517,5.88,71768.8,-11.79,-42.89,-43.01,0,*68
1513285669.5,26518,5.88,71760.8,-11.79,-42.89,-43.09,0,*6F
1513285670.76,26519,5.88,71768.3,-11.81,-43.21,-43.61,0,*64
1513285672.01,26520,5.88,71768.3,-11.79,-43.21,-43.61,0,*69
1513285673.25,26521,5.88,71768.8,-11.79,-43.21,-43.41,0,*6A
1513285674.49,26522,5.88,71764.5,-11.79,-43.29,-43.49,0,*69
1513285675.77,26523,5.88,71766.8,-11.81,-43.29,-43.49,0,*6F
1513285677.04,26524,5.88,71768.0,-11.81,-43.41,-43.67,0,*6A
1513285678.32,26525,5.88,71776.0,-11.81,-43.41,-43.67,0,*6B
1513285679.56,26526,5.94,71774.8,-11.81,-43.41,-43.49,0,*64
1513285680.84,26527,5.88,71778.5,-11.81,-43.29,-43.61,0,*61
1513285682.11,26528,5.88,71772.5,-11.81,-43.49,-43.67,0,*6E
1513285683.38,26529,5.88,71776.0,-11.81,-43.61,-43.81,0,*6D
1513285684.65,26530,5.88,71776.5,-11.81,-43.61,-43.81,0,*65
1513285685.92,26531,5.88,71770.5,-11.81,-43.49,-43.81,0,*6E
1513285687.13,26532,5.88,71770.5,-11.83,-43.49,-43.87,0,*69
1513285688.38,26533,5.88,71768.0,-11.83,-43.49,-43.67,0,*66
1513285689.6,26534,5.88,71776.0,-11.83,-43.49,-43.75,0,*62
1513285690.82,26535,5.88,71770.3,-11.83,-43.35,-43.75,0,*68
1513285692.09,26536,5.88,71766.8,-11.81,-43.41,-43.67,0,*69
1513285693.34,26537,5.88,71772.8,-11.83,-43.55,-43.75,0,*6C
1513285694.55,26538,5.88,71774.8,-11.83,-43.87,-43.95,0,*62
1513285695.82,26539,5.94,71780.8,-11.85,-43.75,-44.13,0,*61
1513285697.03,26540,5.88,71778.8,-11.83,-43.87,-44.07,0,*61
1513285698.27,26541,5.88,71770.0,-11.83,-43.55,-43.87,0,*60
1513285699.52,26542,5.88,71772.8,-11.83,-43.67,-43.95,0,*61